Location: Milevsko
(49.4500°N, 14.3670°E)
Time: 00:48:55
(UTC+01:00)

ISS - Pass Details

Date: 14 July 2018
Orbit: 401 x 408 km, 51.6° (Epoch: 20 November)

Event Time Altitude Azimuth Distance (km) Brightness Sun altitude
Exits shadow 01:11:44 23° 100° (E) 934 -2.1 -18.8°
Drops below altitude 10° 01:13:23 10° 81° (E) 1,493 -0.8 -18.8°
Sets 01:15:35 0° 72° (ENE) 2,362 0.3 -18.8°
